When you browse on this site, cookies collect data to enhance your experience and personalize the content and advertising you see.
Visit our Privacy Policy to learn more. By continuing to use the site, you agree to this use of cookies and data.
  • In Slovakia
  • List of Countries
  • For 7 days
  • Water Temperature
  • Satellite Maps
  • Weather Map
  • Weather Widgets
  • user-avatar
    Login

    Hourly Weather Bulanovka

    Today, 20 November, Tuesday

    Time Temperature Precipitation Wind Pressure Humidity
    00:00 -5°C° 0.1 mm 2 mps 732 mmHg 87%
    01:00 -4°C° 0.1 mm 2 mps 732 mmHg 90%
    02:00 -4°C° 0 mm 2 mps 732 mmHg 92%
    03:00 -4°C° 0 mm 2 mps 732 mmHg 93%
    04:00 -4°C° 0 mm 2 mps 732 mmHg 96%
    05:00 -4°C° 0 mm 2 mps 731 mmHg 96%
    06:00 -4°C° 0 mm 2 mps 731 mmHg 96%
    07:00 -5°C° 0 mm 2 mps 731 mmHg 96%
    08:00 -4°C° 0.1 mm 2 mps 731 mmHg 95%
    09:00 -4°C° 0.1 mm 2 mps 731 mmHg 94%
    10:00 -4°C° 0 mm 2 mps 731 mmHg 92%
    11:00 -3°C° 0.1 mm 2 mps 731 mmHg 91%
    12:00 -3°C° 0.1 mm 2 mps 730 mmHg 89%
    13:00 -4°C° 0.1 mm 3 mps 730 mmHg 87%
    14:00 -3°C° 0.1 mm 2 mps 730 mmHg 89%
    15:00 -3°C° 0.1 mm 2 mps 730 mmHg 90%
    16:00 -3°C° 0 mm 2 mps 729 mmHg 92%
    17:00 -3°C° 0 mm 2 mps 729 mmHg 93%
    18:00 -3°C° 0 mm 2 mps 729 mmHg 94%
    19:00 -4°C° 0 mm 2 mps 729 mmHg 95%
    20:00 -4°C° 0 mm 2 mps 728 mmHg 96%
    21:00 -4°C° 0 mm 2 mps 728 mmHg 96%
    22:00 -4°C° 0 mm 2 mps 728 mmHg 96%
    23:00 -4°C° 0 mm 2 mps 727 mmHg 96%

    Tomorrow, 21 November, Wednesday

    Time Temperature Precipitation Wind Pressure Humidity
    00:00 -4°C° 0 mm 2 mps 727 mmHg 95%
    01:00 -4°C° 0 mm 2 mps 727 mmHg 95%
    02:00 -4°C° 0 mm 2 mps 726 mmHg 95%
    03:00 -5°C° 0 mm 3 mps 726 mmHg 94%
    04:00 -6°C° 0 mm 3 mps 725 mmHg 93%
    05:00 -6°C° 0 mm 3 mps 725 mmHg 92%
    06:00 -7°C° 0 mm 4 mps 724 mmHg 90%
    07:00 -7°C° 0 mm 4 mps 724 mmHg 89%
    08:00 -7°C° 0.1 mm 5 mps 723 mmHg 87%
    09:00 -8°C° 0.1 mm 5 mps 723 mmHg 85%
    10:00 -9°C° 0.1 mm 6 mps 722 mmHg 83%
    11:00 -8°C° 0.4 mm 6 mps 722 mmHg 85%
    12:00 -8°C° 0.4 mm 6 mps 721 mmHg 86%
    13:00 -8°C° 0.4 mm 6 mps 720 mmHg 87%
    14:00 -8°C° 0.3 mm 6 mps 720 mmHg 87%
    15:00 -8°C° 0.3 mm 6 mps 719 mmHg 87%
    16:00 -8°C° 0.3 mm 6 mps 719 mmHg 86%
    17:00 -8°C° 0.1 mm 6 mps 719 mmHg 87%
    18:00 -8°C° 0.1 mm 6 mps 719 mmHg 87%
    19:00 -8°C° 0.1 mm 6 mps 718 mmHg 88%
    20:00 -8°C° 0.1 mm 6 mps 718 mmHg 86%
    21:00 -9°C° 0.1 mm 6 mps 718 mmHg 83%
    22:00 -9°C° 0.1 mm 6 mps 718 mmHg 81%
    23:00 -10°C° 0 mm 6 mps 718 mmHg 83%

    Day after tomorrow, 22 November, Thursday

    Time Temperature Precipitation Wind Pressure Humidity
    00:00 -11°C° 0 mm 5 mps 718 mmHg 84%
    01:00 -12°C° 0 mm 5 mps 718 mmHg 86%
    02:00 -12°C° 0 mm 5 mps 718 mmHg 86%
    03:00 -12°C° 0 mm 5 mps 719 mmHg 86%
    04:00 -12°C° 0 mm 5 mps 719 mmHg 86%
    05:00 -12°C° 0 mm 5 mps 719 mmHg 87%
    06:00 -12°C° 0 mm 5 mps 719 mmHg 88%
    07:00 -11°C° 0 mm 4 mps 719 mmHg 88%
    08:00 -12°C° 0.1 mm 5 mps 719 mmHg 87%
    09:00 -11°C° 0.1 mm 5 mps 719 mmHg 85%
    10:00 -11°C° 0.1 mm 5 mps 719 mmHg 83%
    11:00 -11°C° 0 mm 5 mps 719 mmHg 80%
    12:00 -10°C° 0 mm 5 mps 719 mmHg 77%
    13:00 -10°C° 0 mm 5 mps 718 mmHg 74%
    14:00 -10°C° 0 mm 5 mps 718 mmHg 76%
    15:00 -10°C° 0 mm 4 mps 718 mmHg 79%
    16:00 -9°C° 0 mm 3 mps 718 mmHg 81%
    17:00 -10°C° 0 mm 4 mps 718 mmHg 83%
    18:00 -11°C° 0 mm 5 mps 717 mmHg 85%
    19:00 -11°C° 0 mm 6 mps 717 mmHg 87%
    20:00 -10°C° 0.1 mm 6 mps 716 mmHg 87%
    21:00 -11°C° 0.1 mm 7 mps 716 mmHg 88%
    22:00 -11°C° 0.1 mm 7 mps 715 mmHg 88%
    23:00 -11°C° 0.3 mm 7 mps 714 mmHg 88%

    23 November, Friday

    Time Temperature Precipitation Wind Pressure Humidity
    00:00 -11°C° 0.3 mm 8 mps 714 mmHg 88%
    01:00 -11°C° 0.3 mm 8 mps 713 mmHg 88%
    02:00 -11°C° 0.2 mm 8 mps 713 mmHg 88%
    03:00 -11°C° 0.2 mm 7 mps 713 mmHg 88%
    04:00 -11°C° 0.2 mm 7 mps 712 mmHg 88%
    05:00 -10°C° 0.1 mm 6 mps 712 mmHg 89%
    06:00 -10°C° 0.1 mm 6 mps 712 mmHg 90%
    07:00 -10°C° 0.1 mm 5 mps 712 mmHg 91%
    08:00 -10°C° 0.3 mm 5 mps 712 mmHg 91%
    09:00 -9°C° 0.3 mm 4 mps 712 mmHg 92%
    10:00 -8°C° 0.3 mm 3 mps 713 mmHg 92%
    11:00 -8°C° 0.4 mm 3 mps 713 mmHg 92%
    12:00 -8°C° 0.4 mm 3 mps 714 mmHg 92%
    13:00 -8°C° 0.4 mm 3 mps 714 mmHg 92%
    14:00 -10°C° 0.2 mm 4 mps 715 mmHg 90%
    15:00 -12°C° 0.2 mm 5 mps 715 mmHg 89%
    16:00 -14°C° 0.2 mm 7 mps 716 mmHg 88%
    17:00 -15°C° 0 mm 7 mps 717 mmHg 86%
    18:00 -17°C° 0 mm 7 mps 718 mmHg 85%
    19:00 -17°C° 0 mm 6 mps 718 mmHg 83%
    20:00 -17°C° 0 mm 6 mps 719 mmHg 84%
    21:00 -17°C° 0 mm 5 mps 720 mmHg 85%
    22:00 -18°C° 0 mm 5 mps 721 mmHg 86%
    23:00 -18°C° 0 mm 5 mps 721 mmHg 88%

    24 November, Saturday

    Time Temperature Precipitation Wind Pressure Humidity
    00:00 -18°C° 0 mm 5 mps 722 mmHg 90%
    01:00 -17°C° 0 mm 5 mps 722 mmHg 92%
    02:00 -17°C° 0 mm 5 mps 723 mmHg 91%
    03:00 -17°C° 0 mm 5 mps 723 mmHg 91%
    04:00 -17°C° 0 mm 5 mps 723 mmHg 91%
    05:00 -15°C° 0 mm 5 mps 723 mmHg 91%
    06:00 -15°C° 0 mm 6 mps 724 mmHg 90%
    07:00 -15°C° 0 mm 6 mps 724 mmHg 89%
    08:00 -14°C° 0 mm 6 mps 724 mmHg 89%
    09:00 -14°C° 0 mm 6 mps 725 mmHg 89%
    10:00 -12°C° 0 mm 6 mps 725 mmHg 88%
    11:00 -13°C° 0 mm 7 mps 725 mmHg 88%
    12:00 -13°C° 0 mm 7 mps 725 mmHg 88%
    13:00 -12°C° 0 mm 7 mps 726 mmHg 88%
    14:00 -12°C° 0.1 mm 7 mps 726 mmHg 88%
    15:00 -12°C° 0.1 mm 7 mps 726 mmHg 89%
    16:00 -12°C° 0.1 mm 7 mps 726 mmHg 89%
    17:00 -12°C° 0 mm 8 mps 726 mmHg 89%
    18:00 -12°C° 0 mm 8 mps 726 mmHg 89%
    19:00 -12°C° 0 mm 8 mps 726 mmHg 89%
    20:00 -12°C° 0 mm 8 mps 726 mmHg 88%
    21:00 -12°C° 0 mm 8 mps 726 mmHg 88%
    22:00 -12°C° 0 mm 8 mps 726 mmHg 87%
    23:00 -12°C° 0.1 mm 8 mps 726 mmHg 87%

    25 November, Sunday

    Time Temperature Precipitation Wind Pressure Humidity
    00:00 -12°C° 0.1 mm 7 mps 727 mmHg 88%
    01:00 -11°C° 0.1 mm 7 mps 727 mmHg 88%
    02:00 -11°C° 0.1 mm 7 mps 727 mmHg 88%
    03:00 -11°C° 0.1 mm 7 mps 726 mmHg 88%
    04:00 -11°C° 0.1 mm 7 mps 726 mmHg 89%
    05:00 -11°C° 0.1 mm 7 mps 726 mmHg 89%
    06:00 -11°C° 0.1 mm 7 mps 726 mmHg 89%
    07:00 -11°C° 0.1 mm 7 mps 726 mmHg 89%
    08:00 -11°C° 0 mm 7 mps 726 mmHg 88%
    09:00 -11°C° 0 mm 8 mps 726 mmHg 87%
    10:00 -11°C° 0 mm 8 mps 725 mmHg 86%
    11:00 -11°C° 0.1 mm 8 mps 725 mmHg 87%
    12:00 -11°C° 0.1 mm 8 mps 725 mmHg 87%
    13:00 -11°C° 0.1 mm 8 mps 725 mmHg 88%
    14:00 -11°C° 0.2 mm 8 mps 725 mmHg 88%
    15:00 -11°C° 0.2 mm 7 mps 725 mmHg 89%
    16:00 -11°C° 0.2 mm 7 mps 725 mmHg 90%
    17:00 -9°C° 0.2 mm 7 mps 726 mmHg 90%
    18:00 -9°C° 0.2 mm 6 mps 726 mmHg 91%
    19:00 -8°C° 0.2 mm 5 mps 726 mmHg 91%
    20:00 -8°C° 0.1 mm 5 mps 727 mmHg 92%
    21:00 -8°C° 0.1 mm 4 mps 727 mmHg 93%
    22:00 -9°C° 0.1 mm 4 mps 727 mmHg 94%
    23:00 -8°C° 0 mm 3 mps 727 mmHg 94%
    Show more